Logan, UT

4:57 AM MDT on August 25, 2016 (GMT -0600)
Logan-Cache

Weather History for KLGU - May, 2013

Change the Weather History Date:

Sunday, May 26, 2013

  Actual Average Record
Temperature  
Mean Temperature 59 °F -  
Max Temperature 75 °F 72 °F 89 °F (1958)
Min Temperature 43 °F 43 °F 30 °F (1978)
Degree Days  
Heating Degree Days 6    
Growing Degree Days 9 (Base 50)    
Moisture  
Dew Point 37 °F    
Average Humidity 47    
Maximum Humidity 79    
Minimum Humidity 19    
Precipitation  
Precipitation 0.00 in - - ()
Sea Level Pressure  
Sea Level Pressure 29.78 in    
Wind  
Wind Speed 2 mph (West)    
Max Wind Speed 16 mph    
Max Gust Speed -    
Visibility 10 miles    
Events      
Averages and records for this station are not official NWS values.
T = Trace of Precipitation, MM = Missing Value Source: NWS Daily Summary

Daily Weather History Graph

Daily Weather History Graph

Search for Another Location

Airport or City:

Trip Planner

Search our weather history database for the weather conditions in past years. The results will help you decide how hot, cold, wet, or windy it might be!

Date:

Astronomy

May. 26, 2013 Rise Set
Actual Time 5:58 AM MDT 8:51 PM MDT
Civil Twilight 5:25 AM MDT 9:24 PM MDT
Nautical Twilight 4:43 AM MDT 10:06 PM MDT
Astronomical Twilight 3:55 AM MDT 10:54 PM MDT
Moon 10:41 PM MDT (5/26) 7:31 AM MDT (5/26)
Length of Visible Light 15h 59m
Length of Day
14h 53m
Waning Gibbous, 96% of the Moon is Illuminated
May 26
Waning Gibbous
May 31
Last Quarter
Jun 8
New
Jun 16
First Quarter
Jun 23
Full

Hourly Weather History & Observations

Time (MDT) Temp. Dew Point Humidity Pressure Visibility Wind Dir Wind Speed Gust Speed Precip Events Conditions
12:51 AM 50.0 °F 37.9 °F 63% 29.78 in 10.0 mi Calm Calm - N/A   Clear
1:51 AM 46.9 °F 36.0 °F 66% 29.78 in 10.0 mi Calm Calm - N/A   Clear
2:51 AM 48.0 °F 37.9 °F 68% 29.77 in 10.0 mi Calm Calm - N/A   Clear
3:51 AM 46.0 °F 36.0 °F 68% 29.79 in 10.0 mi Calm Calm - N/A   Clear
4:51 AM 46.0 °F 37.0 °F 71% 29.80 in 10.0 mi Calm Calm - N/A   Clear
5:51 AM 43.0 °F 36.0 °F 76% 29.81 in 10.0 mi Calm Calm - N/A   Clear
6:51 AM 44.1 °F 37.9 °F 79% 29.82 in 10.0 mi Calm Calm - N/A   Clear
7:51 AM 48.9 °F 39.0 °F 69% 29.81 in 10.0 mi Calm Calm - N/A   Clear
8:51 AM 54.0 °F 39.9 °F 59% 29.83 in 10.0 mi Calm Calm - N/A   Clear
9:51 AM 57.9 °F 41.0 °F 53% 29.84 in 10.0 mi Calm Calm - N/A   Clear
10:51 AM 61.0 °F 43.0 °F 52% 29.81 in 10.0 mi North 3.5 mph - N/A   Clear
11:51 AM 69.1 °F 43.0 °F 39% 29.80 in 10.0 mi Calm Calm - N/A   Clear
12:51 PM 73.0 °F 37.0 °F 27% 29.78 in 10.0 mi South 6.9 mph - N/A   Clear
1:51 PM 75.0 °F 32.0 °F 21% 29.77 in 10.0 mi WSW 16.1 mph - N/A   Clear
2:51 PM 75.0 °F 30.0 °F 19% 29.76 in 10.0 mi WSW 11.5 mph - N/A   Clear
3:51 PM 73.9 °F 32.0 °F 21% 29.75 in 10.0 mi SSW 10.4 mph - N/A   Clear
4:51 PM 73.0 °F 35.1 °F 25% 29.75 in 10.0 mi WSW 9.2 mph - N/A   Clear
5:51 PM 73.0 °F 32.0 °F 22% 29.75 in 10.0 mi West 9.2 mph - N/A   Clear
6:51 PM 71.1 °F 36.0 °F 28% 29.73 in 10.0 mi NW 3.5 mph - N/A   Clear
7:51 PM 72.0 °F 28.9 °F 20% 29.72 in 10.0 mi Calm Calm - N/A   Clear
8:51 PM 64.0 °F 42.1 °F 45% 29.73 in 10.0 mi Variable 3.5 mph - N/A   Clear
9:51 PM 63.0 °F 41.0 °F 45% 29.75 in 10.0 mi Calm Calm - N/A   Partly Cloudy
10:51 PM 63.0 °F 37.9 °F 40% 29.79 in 10.0 mi NW 9.2 mph - N/A   Overcast
11:51 PM 57.9 °F 39.9 °F 51% 29.80 in 10.0 mi North 11.5 mph - N/A   Mostly Cloudy